C/2024 M1 ( ATLAS )

Japanese version
Home page
Updated on May 3, 2025

---------------------------------------------------------------------

* Profile

Discovery Date June 29, 2024
Magnitude 17.8 mag
Discoverer Asteroid Terrestrial-Impact Last Alert System (ATLAS) search program

* Pictures

* Orbital Elements

Epoch 2025 May 5.0 TT = JDT 2460800.5
T 2024 Nov. 20.00317 TT                                 Pike
q   1.7032510            (2000.0)            P               Q
n   0.00604897     Peri.  345.58675     +0.29859090     -0.20453782
a  29.8319645      Node    76.21491     +0.94278287     -0.08860156
e   0.9429052      Incl.   73.70977     +0.14833725     +0.97484052
P 163
From 1368 observations 2022 May 10-2025 Feb. 25, mean residual 0".4.

* Finding Charts

* Magnitudes Graph

        H = 13.0  G = 0.15

---------------------------------------------------------------------

The orbital elements are published on M.P.E.C. 2025-D254.
The charts are made with StellaNavigator Ver.11 (AstroArts).
The magnitudes graphs are made with Comet for Windows.

---------------------------------------------------------------------

Copyright(C) Seiichi Yoshida (comet@aerith.net). All rights reserved.